Temp
15 15 14 14 13 13 13 13 13 12 12 11 11 11 10 10 10 10 10 10 10 10 10 10 10 10 9 9 9 8 8 8 7 7 7 7 7 6 6 6 6 6
14 14 14 14 13 13 13 12 12 12 11 11 11 10 10 10 10 10 10 10 10 10 10 10 9 9 9 9 8 8 8 7 7 7 7 7 7 6 6 6 6 6
14 14 14 14 13 13 12 12 12 11 11 11 11 10 10 10 10 10 10 10 10 10 9 9 9 9 9 8 8 8 7 7 7 7 7 7 7 6 6 6 6 6
14 14 14 13 13 12 12 12 11 11 11 11 10 10 10 10 10 10 10 10 10 9 9 9 9 9 8 8 8 8 7 7 7 7 7 6 6 6 6 6 6 6
14 13 13 13 13 12 12 11 11 11 11 10 10 10 10 10 10 10 10 9 9 9 9 9 9 8 8 8 8 7 7 7 7 7 7 6 6 6 6 6 6 6
13 13 13 13 12 12 11 11 11 11 11 10 10 10 10 10 10 9 9 9 9 9 9 9 8 8 8 8 8 7 7 7 7 6 6 6 6 6 6 6 6 6
13 13 12 12 12 11 11 11 11 10 10 10 9 9 9 9 9 9 9 9 9 9 9 9 8 8 8 8 7 7 7 7 7 6 6 6 6 6 6 6 6 6
12 12 12 12 11 11 11 11 10 10 10 10 9 9 9 9 9 9 9 9 9 9 8 8 8 8 8 8 7 7 7 7 7 7 6 6 6 6 6 6 6 6
12 12 12 11 11 11 11 10 10 10 10 9 9 9 9 9 9 9 9 9 9 8 8 8 8 8 8 8 7 7 7 7 7 7 7 7 6 6 6 6 6 6
12 11 11 11 11 11 10 10 10 10 9 9 9 9 9 9 9 8 8 8 8 8 8 8 8 8 8 7 7 7 7 7 7 7 7 7 7 6 6 6 6 6
11 11 11 11 11 11 10 10 10 9 9 9 9 9 9 9 8 8 8 8 8 8 8 8 8 8 7 7 7 7 7 7 7 7 7 7 7 6 6 6 6 6
11 11 11 11 11 10 10 10 9 9 9 9 9 9 9 9 8 8 8 8 8 8 8 8 8 8 7 7 7 7 7 7 7 7 7 7 6 6 6 6 6 6
11 11 11 11 10 10 10 9 9 9 9 9 9 9 9 9 8 7 7 8 8 8 8 8 8 8 7 7 7 7 7 7 7 7 7 7 6 6 6 6 6 6
10 10 10 10 10 10 9 9 9 9 9 9 9 9 9 9 8 7 7 7 7 7 7 7 7 7 7 7 7 7 7 7 7 7 7 7 6 6 6 6 6 6
10 10 10 10 10 9 9 9 9 9 9 9 9 9 9 8 8 7 7 7 7 7 7 7 7 7 7 7 7 7 7 7 7 7 7 7 6 6 6 6 6 6
10 10 10 9 9 9 9 9 9 8 8 8 9 8 8 7 7 7 7 7 7 7 7 7 7 7 7 7 7 7 7 7 7 7 7 7 6 6 6 6 6 6
9 9 9 9 9 9 9 9 8 8 8 8 8 8 7 7 6 6 6 6 6 7 7 7 7 7 7 7 7 7 7 7 7 7 7 7 7 7 6 6 6 6
9 9 9 8 8 8 8 8 8 8 8 8 8 7 7 6 6 6 6 6 6 6 7 7 7 7 7 7 7 7 7 7 7 7 7 7 7 7 7 6 6 6
9 9 8 8 8 8 8 8 8 8 8 8 8 7 6 6 6 6 6 6 6 6 7 7 7 7 7 7 7 7 7 7 7 7 7 7 7 7 7 6 6 6
8 8 8 8 8 8 8 8 8 8 8 8 8 7 6 6 6 6 6 6 6 6 6 7 6 6 7 7 7 7 7 7 7 6 6 6 6 6 6 6 6 5
8 8 8 8 8 8 8 8 8 8 8 8 8 7 6 6 6 6 6 6 6 6 6 6 6 6 6 6 7 7 7 7 7 6 6 6 6 6 6 6 6 5
8 8 8 7 7 8 8 8 8 8 8 8 7 7 6 6 6 6 6 6 6 6 6 6 6 6 7 7 7 7 7 7 6 6 6 6 6 6 6 6 6 6
8 8 8 7 7 7 7 8 8 8 8 8 7 7 6 6 6 6 7 7 7 7 7 7 7 7 7 7 7 7 7 6 6 5 5 5 6 6 6 6 6 6
8 8 8 7 7 7 8 8 8 8 8 8 7 7 7 7 7 7 7 7 7 7 7 7 7 7 7 7 7 6 6 6 5 5 5 5 5 6 6 6 6 6
8 8 8 8 8 7 8 8 8 8 8 7 8 7 7 7 7 7 7 7 7 7 7 7 7 7 7 6 6 6 5 5 5 5 5 5 5 5 6 6 6 6
8 8 8 8 8 8 8 8 8 8 8 7 7 7 7 7 7 7 7 7 7 7 7 7 7 7 6 6 6 5 5 4 5 5 5 5 5 6 6 6 6 7
Height
834 835 836 838 840 842 843 845 846 847 848 849 850 851 851 852 852 853 853 854 854 855 855 856 856 856 856 856 856 855 856 856 856 857 858 858 859 859 859 860 860 860
833 835 837 838 840 842 844 845 846 847 848 849 850 851 852 852 853 854 854 855 856 856 857 857 857 857 857 857 857 857 857 858 858 859 860 860 861 861 861 862 862 862
833 835 837 839 840 842 844 846 847 848 849 850 851 852 852 853 854 855 856 857 857 858 858 858 859 858 859 859 859 859 859 859 860 861 861 862 862 863 863 864 864 863
833 835 837 839 841 843 844 846 847 849 849 850 851 852 853 854 855 856 857 858 858 859 859 860 860 860 860 861 860 860 861 861 862 862 863 863 864 864 865 865 865 865
833 835 837 839 841 843 844 846 847 849 850 851 852 853 854 855 856 857 858 859 860 860 860 861 861 862 862 862 862 862 862 863 863 864 864 864 865 866 866 867 866 866
833 835 837 839 841 842 844 846 848 849 850 851 852 854 855 856 857 858 859 860 861 861 861 862 863 863 864 864 863 863 863 864 864 865 865 866 867 867 868 868 868 867
833 835 837 839 841 843 845 846 848 849 850 851 853 854 856 857 858 859 860 860 861 861 862 863 864 864 865 865 864 864 864 865 865 866 866 867 868 868 869 869 869 868
833 835 837 839 841 842 845 846 847 849 850 852 853 855 856 858 858 859 860 861 862 862 863 864 865 865 866 865 865 865 865 866 867 867 867 868 869 869 870 870 869 869
832 834 837 838 841 842 844 846 847 849 850 852 853 855 856 858 859 860 861 861 862 862 863 864 865 866 866 866 866 866 866 867 868 868 869 869 870 870 870 870 870 869
831 834 836 838 840 842 844 846 847 849 850 852 853 855 856 858 859 860 861 861 862 863 863 864 865 866 866 866 867 866 867 867 868 869 870 870 871 871 871 871 870 870
830 833 835 837 839 841 843 845 847 848 850 852 853 854 856 858 859 860 861 861 862 863 864 865 865 866 867 867 867 867 867 868 869 870 870 871 871 871 871 871 871 870
830 832 834 836 838 841 843 845 846 848 850 851 853 854 856 857 858 860 861 861 862 863 864 865 865 866 867 867 867 867 867 868 869 870 871 871 872 872 872 872 871 871
830 832 834 835 838 840 842 844 846 847 848 850 852 854 856 857 858 859 860 861 862 863 864 865 865 866 867 867 868 868 868 868 869 870 871 871 872 872 872 872 872 872
830 832 834 836 838 840 842 843 845 846 848 850 852 854 855 856 857 858 859 861 862 863 864 865 866 867 867 868 868 868 868 868 869 870 871 872 872 872 872 872 872 872
829 831 833 835 837 839 841 842 844 846 848 850 852 854 855 856 857 858 859 860 862 863 864 865 866 867 868 868 868 868 868 868 869 870 871 871 872 872 872 872 872 872
828 830 832 834 836 838 840 841 843 845 848 850 852 853 855 856 857 858 859 860 861 863 864 865 866 867 868 868 868 868 868 868 869 870 870 871 872 872 872 872 872 872
827 830 832 834 835 837 839 841 843 845 847 850 851 852 854 856 857 858 859 860 862 863 864 865 866 867 868 868 868 868 868 868 869 869 870 871 871 872 872 872 872 872
827 829 831 834 836 839 840 841 843 844 846 849 851 852 854 855 857 858 859 860 862 863 863 865 866 867 867 867 868 868 868 868 868 869 869 870 871 871 871 872 872 872
826 828 830 833 836 838 840 841 843 844 846 848 850 852 853 855 857 858 859 860 861 862 863 864 865 866 867 867 867 867 867 867 868 868 869 870 870 871 871 871 871 872
825 827 830 832 834 836 838 840 842 844 846 848 849 851 853 855 856 858 859 860 861 862 863 864 865 866 866 867 867 867 867 867 867 868 868 869 870 870 870 871 871 871
824 826 829 831 833 835 838 840 842 843 845 847 849 851 852 854 856 857 858 860 861 862 863 864 864 865 866 866 866 866 866 866 866 866 867 868 869 869 870 870 871 871
823 825 828 830 832 834 837 839 841 843 845 847 849 851 853 854 856 857 858 859 860 862 863 863 864 865 865 865 865 865 865 865 865 866 866 867 868 869 870 870 870 870
821 823 826 828 831 833 835 837 840 842 845 847 848 850 852 854 855 857 858 859 860 861 862 863 863 864 865 865 864 864 864 864 864 865 866 867 868 869 869 870 870 870
819 821 824 826 830 832 834 837 840 842 844 846 848 850 852 853 855 856 858 859 860 861 862 862 863 864 864 864 863 863 863 864 864 865 866 867 868 868 869 869 869 869
817 820 823 825 828 831 833 836 839 841 843 846 848 850 851 853 855 856 857 859 860 861 862 862 863 863 863 863 863 863 863 864 864 865 865 866 867 868 869 869 869 869
816 819 821 823 826 829 832 835 838 840 843 845 847 849 851 853 854 856 857 859 860 861 862 863 863 863 863 863 863 863 863 864 864 865 865 866 867 868 868 868 869 868
Wind_Speed
22 22 21 20 17 15 13 12 11 10 10 9 9 11 12 13 13 12 12 12 13 14 14 14 14 14 15 17 18 20 22 23 23 22 23 25 25 26 27 26 25 25
22 22 20 18 17 15 14 13 13 12 12 11 11 13 14 14 13 12 12 13 14 15 15 14 14 14 16 17 18 20 22 23 23 22 22 24 24 26 27 26 25 25
22 21 19 18 17 16 16 15 14 13 12 12 12 14 15 14 14 13 13 14 15 16 15 14 15 15 16 17 18 19 20 21 22 21 21 22 23 25 25 25 25 24
21 20 19 17 17 17 17 17 16 15 13 12 14 15 15 15 14 14 14 15 15 16 16 15 15 15 16 16 18 19 20 20 20 19 21 22 22 23 24 24 25 24
21 20 19 18 18 18 18 18 17 16 13 14 16 16 15 15 15 15 15 15 16 17 16 15 15 15 16 16 17 19 19 19 18 17 20 22 21 22 22 23 24 23
20 20 19 19 20 20 19 18 17 16 14 15 17 16 15 15 15 15 15 16 16 16 15 15 15 16 16 16 17 18 18 18 17 17 20 21 20 20 20 21 22 22
21 20 21 21 21 21 20 19 18 15 15 17 17 16 15 14 14 15 15 16 16 16 15 15 15 16 16 16 17 18 17 17 17 18 19 19 19 18 18 19 20 21
22 22 22 23 23 21 20 20 18 17 17 18 17 16 15 14 14 15 15 15 16 16 16 15 15 16 15 15 16 17 17 17 18 18 18 17 17 16 16 16 18 19
23 24 25 24 23 22 21 20 19 18 19 18 17 16 15 14 14 14 15 16 16 16 16 15 15 15 14 13 14 15 16 16 17 17 16 15 15 15 14 15 16 18
25 26 26 25 24 23 22 21 20 20 20 18 17 15 14 14 14 14 15 16 16 16 16 15 15 15 14 13 13 13 14 14 14 14 14 14 13 12 12 13 15 17
27 28 27 26 25 24 23 22 22 22 20 17 15 13 13 13 14 15 16 16 16 16 16 15 14 14 14 14 13 12 12 12 12 11 11 11 11 10 9 10 13 16
28 29 28 27 26 25 24 24 23 22 19 15 13 11 11 13 15 17 17 17 17 16 16 15 14 13 13 13 13 12 11 11 10 9 8 9 9 8 7 8 12 15
29 29 28 27 26 26 25 25 23 21 18 15 11 9 10 13 16 18 18 18 17 17 16 15 14 13 13 12 12 11 10 10 8 7 6 6 6 5 5 6 9 13
30 29 28 27 26 27 26 25 23 20 17 14 11 9 11 13 16 18 19 19 18 17 16 15 14 13 13 12 11 10 9 9 7 6 4 3 3 3 3 4 6 10
30 29 28 28 28 28 28 26 23 20 17 14 11 11 12 14 16 18 19 19 18 17 16 15 14 14 13 11 9 9 8 7 6 5 4 2 1 1 1 2 3 7
30 30 30 29 29 29 28 26 23 20 17 14 12 13 14 15 16 18 19 19 19 18 16 15 15 14 13 10 8 7 6 6 5 5 4 3 1 1 2 3 2 4
31 31 31 30 30 29 28 26 23 20 17 15 14 15 16 16 17 17 18 18 18 17 16 15 14 13 12 10 8 7 5 4 4 4 4 3 2 2 3 4 3 3
32 32 31 30 29 28 27 26 23 21 18 15 15 16 17 17 17 17 18 18 17 17 15 15 14 12 10 9 7 6 4 3 3 3 3 2 1 2 3 4 3 4
32 32 31 31 30 29 28 27 24 21 19 16 16 17 18 18 18 18 18 17 16 16 15 14 13 11 9 8 6 5 4 3 2 2 2 2 2 2 3 2 2 4
33 33 32 32 31 31 30 27 24 21 19 17 17 18 19 19 19 18 18 17 16 15 15 14 12 10 8 6 5 4 3 3 3 3 3 3 3 2 1 0 2 4
34 34 34 33 32 31 30 27 24 21 19 18 18 18 19 19 19 18 17 16 15 14 14 13 11 9 7 5 4 4 3 3 4 4 3 3 2 2 1 1 2 4
34 34 33 33 32 32 30 28 25 21 20 19 19 19 19 18 18 17 16 15 14 13 12 11 9 7 5 3 2 1 1 1 2 2 3 3 3 3 2 1 2 4
34 34 33 33 33 32 31 28 25 23 21 21 21 21 20 19 17 16 15 14 14 12 11 10 9 7 5 3 2 2 1 1 2 4 4 4 4 3 2 0 2 5
35 35 34 34 33 32 31 29 26 25 23 23 22 22 21 19 18 17 16 14 13 12 11 11 10 8 6 4 3 3 2 3 4 5 6 5 4 3 1 1 2 5
35 34 34 34 33 33 32 30 28 26 25 24 22 21 21 20 19 18 17 15 14 13 12 11 10 8 6 5 4 4 4 5 5 6 6 5 4 3 1 1 2 5
34 34 34 35 34 34 33 31 30 28 27 25 22 20 20 20 19 19 18 17 15 13 11 10 9 8 7 5 5 4 5 6 7 6 6 6 4 2 1 1 3 5
Wind_Direction
182 183 183 180 175 170 166 164 161 155 150 151 151 151 148 143 143 142 136 133 133 131 128 123 118 115 114 111 107 102 97 92 88 87 87 88 87 82 78 75 72 72
184 183 180 174 168 166 165 163 159 153 150 152 154 152 148 145 144 140 136 136 136 134 132 127 122 118 116 114 109 103 98 93 90 89 89 90 87 81 77 74 71 69
182 180 177 173 169 166 164 160 156 153 150 152 154 153 150 148 145 142 140 141 140 138 136 131 125 121 118 115 110 104 98 94 92 92 92 91 87 81 76 72 70 67
177 176 175 173 171 168 164 159 156 155 153 154 156 155 152 151 149 147 145 145 144 142 140 134 127 124 121 118 112 105 98 94 93 93 96 94 86 81 76 71 69 66
174 174 174 173 171 169 165 161 159 158 158 158 158 156 156 155 154 152 150 149 147 145 141 135 129 127 125 121 112 105 98 94 93 95 99 95 86 81 76 71 68 64
172 173 173 172 171 169 166 163 162 161 161 161 159 158 159 159 158 157 155 153 150 147 144 137 133 131 128 122 112 104 97 92 94 99 100 94 87 82 76 69 66 62
172 172 172 171 169 168 167 164 163 162 162 162 160 160 161 162 161 160 159 157 153 150 146 141 138 136 132 124 114 105 96 92 94 100 100 93 88 84 77 69 63 60
171 171 171 171 168 168 168 166 165 164 164 163 161 161 164 166 165 162 161 160 157 153 149 145 142 140 137 128 117 108 100 95 94 98 99 93 88 83 77 69 61 57
172 172 171 171 170 170 169 167 167 166 165 165 163 162 165 169 169 166 164 163 160 156 152 148 145 144 141 133 121 112 105 101 96 94 95 92 87 83 77 68 59 54
173 172 172 172 171 171 170 169 168 166 165 165 163 163 167 172 173 171 169 166 162 158 155 151 149 147 145 138 127 116 109 107 102 95 92 89 87 84 77 67 57 51
173 172 172 172 171 171 171 170 168 165 165 166 164 165 171 176 178 175 173 170 165 161 158 155 153 151 150 144 134 123 115 110 106 99 92 88 86 83 77 67 55 47
172 172 174 173 172 172 172 170 168 166 165 165 165 168 173 178 181 178 176 173 167 164 163 159 157 156 155 150 143 134 123 116 112 105 96 90 87 83 76 66 54 45
173 174 174 173 174 173 171 170 168 167 165 162 165 172 176 178 179 177 175 173 168 165 164 163 160 160 159 155 149 141 130 124 121 116 106 98 95 87 75 65 53 43
174 175 175 174 174 172 171 169 167 166 164 162 164 172 174 173 174 174 172 170 168 166 165 163 162 163 161 155 149 142 135 130 128 128 123 117 118 100 70 62 50 39
175 175 175 174 173 171 170 168 166 164 162 161 164 169 169 167 168 170 169 167 166 165 164 163 163 163 162 158 151 143 136 131 132 138 143 161 165 131 14 26 39 29
175 175 174 173 172 171 169 167 165 163 161 161 162 166 165 163 163 166 167 167 165 164 164 163 164 165 164 165 161 154 146 135 137 140 150 184 230 272 287 311 339 1
175 174 173 172 172 169 167 167 166 163 161 161 162 163 162 161 161 162 164 166 165 164 163 163 164 166 167 170 170 167 165 153 153 155 150 171 231 279 287 298 301 324
175 173 170 170 170 168 168 169 168 164 161 162 163 163 162 161 162 161 162 164 164 163 162 163 163 163 166 171 171 169 169 160 162 169 164 173 249 311 312 303 292 319
173 171 170 171 172 172 172 171 169 165 162 164 164 163 162 162 163 162 161 162 164 163 161 161 161 161 163 169 170 169 172 172 177 191 202 235 277 315 329 311 279 317
172 171 171 173 174 173 172 171 169 166 163 165 165 162 162 163 164 164 162 163 165 164 162 161 160 161 166 172 179 191 207 224 241 248 245 253 267 291 319 266 271 313
172 172 172 174 173 172 172 170 169 166 164 165 165 162 162 162 162 163 163 164 167 167 165 164 162 165 175 188 201 218 237 248 251 248 240 236 239 231 194 212 283 321
173 172 172 173 172 171 171 170 168 166 165 163 160 158 159 160 159 160 161 161 166 169 169 165 164 169 177 184 194 208 237 243 220 200 190 185 186 179 169 221 306 336
174 174 173 172 172 171 171 170 168 166 163 160 157 155 157 158 156 155 156 157 158 163 164 158 153 151 146 137 120 95 88 134 155 161 161 158 163 167 163 258 325 344
177 177 174 172 172 173 171 170 168 166 162 160 158 155 154 154 152 150 150 150 150 152 151 145 140 135 129 117 95 79 85 109 135 151 156 155 160 167 173 278 322 343
178 178 176 175 175 175 174 172 170 166 163 160 157 155 153 153 152 150 148 146 145 143 140 137 132 127 122 107 86 83 95 107 120 136 146 150 158 171 186 259 314 336
179 180 180 180 179 178 176 175 173 169 164 161 158 157 157 157 155 151 148 145 144 142 139 135 128 121 113 98 86 95 113 117 118 125 131 133 131 126 105 359 333 332